Regional Weather Roundup
Issued by NWS Sterling, VA

Home | Current Version | Previous Version | Graphics & Text | Print | Product List | Glossary On
Versions: 1 2 3 4 5 6 7 8 9 10 11 12 13 14 15 16 17 18 19 20 21 22 23 24 25 26 27 28 29 30 31 32 33 34 35 36 37 38 39 40 41 42 43 44 45 46 47 48 49 50
000
ASUS41 KLWX 262211
RWRLWX

REGIONAL WEATHER ROUNDUP
NATIONAL WEATHER SERVICE BALTIMORE MD/WASHINGTON DC
500 PM EST SUN FEB 26 2017

Note: "FAIR" indicates few or no clouds below 12,000 feet
with no significant weather and/or obstructions to visibility.
 TC=TEMPERATURE CELSIUS

 * =Non NWS site. Station does not report precipitation (e.g. rain,
    snow, etc.), thunder, or fog.

DCZ001-MDZ009-015-VAZ040>042-051-053>054-262300-
WASHINGTON METRO

CITY           SKY/WX    TMP DP  RH WIND       PRES   REMARKS
WASHINGTON NAT MOSUNNY   49  17  28 W6        30.17R
DULLES         MOSUNNY   47  16  29 NW8       30.16R
ANDREWS AFB    CLEAR     47  16  29 W6        30.15R
FT BELVOIR     SUNNY     49  16  27 NW6       30.16R
QUANTICO       SUNNY     50  16  25 W8        30.17R
COLLEGE PARK*  CLEAR     45  18  33 W6        30.17R
LEESBURG*      SUNNY     46  23  39 MISG      30.18R
MANASSAS*      MOSUNNY   49  17  28 SW5       30.16R
GAITHERSBURG*  SUNNY     43  16  33 NW7       30.20R

$$

MDZ006>007-011-014-262300-
BALTIMORE METRO

CITY           SKY/WX    TMP DP  RH WIND       PRES   REMARKS
BWI AIRPORT    PTCLDY    45  19  35 NW9       30.17R
MD SCIENCE CTR   N/A     45  16  31 MISG      30.16R
MARTIN STATE   PTCLDY    45  21  39 W15       30.19R
ANNAPOLIS      CLEAR     47  24  40 NW12      30.17R
FORT MEADE*    CLEAR     43  19  39 NW9       30.20R

$$

MDZ012-015-019>023-262300-
MARYLAND EASTERN SHORE

CITY           SKY/WX    TMP DP  RH WIND       PRES   REMARKS
OCEAN CITY     CLEAR     44  18  35 NW12G18   30.18R
SALISBURY      CLEAR     45  20  36 W7        30.18R
BAY BRIDGE AP* CLEAR     45  21  39 NW8       30.18R
CAMBRIDGE*     CLEAR     45  19  36 NW8       30.18R
EASTON*        CLEAR     46  18  31 NW9       30.21R

$$

MDZ017>025-262300-
SOUTHERN MARYLAND

CITY           SKY/WX    TMP DP  RH WIND       PRES   REMARKS
PATUXENT RIVER PTCLDY    47  22  37 NW7       30.17R
ST INIGOES     CLEAR     48  21  34 NW6       30.17R
LEONARDTOWN*   CLEAR     46  19  34 NW6       30.18R

$$

MDZ003>005-262300-
NORTH CENTRAL MARYLAND

CITY           SKY/WX    TMP DP  RH WIND       PRES   REMARKS
FREDERICK*     SUNNY     45  21  39 NW9       30.20R
HAGERSTOWN APT SUNNY     42  17  36 NW13      30.16R
WESTMINSTER*   CLEAR     43  19  39 NW12G21   30.16R

$$

MDZ501>502-262300-
WESTERN MARYLAND

CITY           SKY/WX    TMP DP  RH WIND       PRES   REMARKS
OAKLAND*       SUNNY     32  10  40 W7        30.08S
CUMBERLAND*    SUNNY     45  10  24 NW3       30.20R

$$

VAZ025>031-262300-
SHENANDOAH VALLEY

CITY           SKY/WX    TMP DP  RH WIND       PRES   REMARKS
WINCHESTER*    SUNNY     43  14  31 NW10G16   30.15R
FRONT ROYAL*   SUNNY     46  12  25 W9        30.14R
LURAY*         SUNNY     48  16  27 NW13G18   30.14R
NEW MARKET*    SUNNY     47   3  16 NW3       30.14R
STAUNTON*      SUNNY     48   9  21 NW10      30.15R
WAYNESBORO*    SUNNY     48   5  17 W3        30.12R

$$

WVZ021-048>050-054>055-262300-
EASTERN WEST VIRGINIA PANHANDLE

CITY           SKY/WX    TMP DP  RH WIND       PRES   REMARKS
MARTINSBURG    SUNNY     45  12  26 W14       30.16R
PETERSBURG*    SUNNY     46  15  28 W10       30.17R

$$

VAZ036>039-050-262300-
CENTRAL FOOTHILLS

CITY           SKY/WX    TMP DP  RH WIND       PRES   REMARKS
CHARLOTTESVILL SUNNY     54  13  19 VRB3      30.12R
CULPEPER*      SUNNY     50  16  25 CALM      30.16R
ORANGE*        SUNNY     50  14  23 CALM      30.15R
GORDONSVILLE*  SUNNY     52  14  22 SW5       30.13R
WARRENTON*     SUNNY     51   8  18 W5        30.14R

$$

VAZ055>057-262300-
NORTH AND CENTRAL PIEDMONT

CITY           SKY/WX    TMP DP  RH WIND       PRES   REMARKS
FREDERICKSBRG* SUNNY     51  19  29 W7        30.16R
STAFFORD*      SUNNY     49  16  27 CALM      30.20R

$$

NCZ024-NYZ072-PAZ021-071-VAZ022-071-262300-
OTHER REGIONAL OBSERVATIONS

CITY           SKY/WX    TMP DP  RH WIND       PRES   REMARKS
NEW YORK CITY  PTCLDY    41  14  33 VRB5      30.10R
PHILADELPHIA   PTCLDY    43  16  33 W20G25    30.16R
PITTSBURGH     MOSUNNY   39  15  37 SW8       30.12S
ROANOKE        SUNNY     51   9  18 NW14      30.19R
RICHMOND       MOSUNNY   51  17  26 W7        30.17R
RALEIGH        SUNNY     55  14  19 W8        30.19R

$$

ANZ530>537-262300-
MARINE OBSERVATIONS

STATION/POSITION TIME  TEMP    WIND        PRES
                       AIR SEA DIR/SP/G
                 (UTC) (F)     (DEG/KT/KT) (MB)
THOMAS PT LIGHT  2200   45 44  310/ 12/ 14   N/A
BALT KEY BRIDGE  2148   44     280/ 11/ 13 1021.6R
COVE POINT       2148   45     360/  5/  8 1022.2R
LEWISETTA        2148   46 48   20/  5/  9 1021.4R
SOLOMONS ISLAND  2148   47 45  300/  6/  8   N/A
PINEY POINT      2148          360/  8/  9   N/A

$$




USA.gov is the U.S. government's official web portal to all federal, state and local government web resources and services.